Weather History for KMCW - November, 2013

Change the Weather History Date:

Wednesday, November 20, 2013

  Actual Average Record
Temperature  
Mean Temperature 39 °F 31 °F  
Max Temperature 41 °F 40 °F 72 °F (1897)
Min Temperature 36 °F 22 °F -2 °F (2014)
Degree Days  
Heating Degree Days 26 34  
Month to date heating degree days 572 569  
Since 1 July heating degree days 1230 1307  
Cooling Degree Days 0 0  
Month to date cooling degree days 0 0  
Year to date cooling degree days 718 616  
Moisture  
Dew Point 33 °F    
Average Humidity 80    
Maximum Humidity 100    
Minimum Humidity 59    
Precipitation  
Precipitation T in 0.06 in 1.48 in (1973)
Month to date precipitation 1.33 1.32  
Year to date precipitation 37.73 33.40  
Snow  
Snow 0.00 in 0.20 in 5.00 in (1956)
Month to date snowfall 1.0 2.1  
Since 1 July snowfall 1.0 2.5  
Since 1 September snowfall 1.0 2.5  
Snow Depth 0.00 in    
Sea Level Pressure  
Sea Level Pressure 29.97 in    
Wind  
Wind Speed 16 mph (SSE)    
Max Wind Speed 26 mph    
Max Gust Speed 32 mph    
Visibility 6 miles    
Events      
T = Trace of Precipitation, MM = Missing Value Source: NWS Daily Summary

Daily Weather History Graph

Daily Weather History Graph

Search for Another Location

Airport or City:

Trip Planner

Search our weather history database for the weather conditions in past years. The results will help you decide how hot, cold, wet, or windy it might be!

Date:

Astronomy

Nov. 20, 2013 Rise Set
Actual Time 7:12 AM CST 4:44 PM CST
Civil Twilight 6:41 AM CST 5:16 PM CST
Nautical Twilight 6:06 AM CST 5:50 PM CST
Astronomical Twilight 5:33 AM CST 6:24 PM CST
Moon 7:28 PM CST (11/20) 9:38 AM CST (11/20)
Length of Visible Light 10h 34m
Length of Day
9h 32m
Waning Gibbous, 91% of the Moon is Illuminated
Nov 20
Waning Gibbous
Nov 25
Last Quarter
Dec 2
New
Dec 9
First Quarter
Dec 17
Full

Hourly Weather History & Observations

Time (CST) Temp. Windchill Dew Point Humidity Pressure Visibility Wind Dir Wind Speed Gust Speed Precip Events Conditions
12:53 AM 41.0 °F 31.6 °F 28.9 °F 62% 29.99 in 10.0 mi SSE 20.7 mph 28.8 mph N/A   Overcast
1:53 AM 39.9 °F 29.5 °F 28.9 °F 65% 29.97 in 10.0 mi SSE 24.2 mph 29.9 mph N/A   Overcast
2:53 AM 39.9 °F 29.7 °F 28.0 °F 63% 29.98 in 10.0 mi SSE 23.0 mph 28.8 mph 0.00 in   Overcast
3:53 AM 39.9 °F 30.2 °F 27.0 °F 60% 29.97 in 10.0 mi SSE 20.7 mph 29.9 mph N/A   Overcast
4:53 AM 39.9 °F 31.1 °F 26.1 °F 58% 29.96 in 10.0 mi SSE 17.3 mph - N/A   Overcast
5:53 AM 39.9 °F 30.5 °F 26.1 °F 58% 29.96 in 10.0 mi SSE 19.6 mph 26.5 mph N/A   Overcast
6:53 AM 39.9 °F 30.8 °F 26.1 °F 58% 29.96 in 10.0 mi SSE 18.4 mph 26.5 mph N/A   Overcast
7:53 AM 37.9 °F 27.9 °F 28.0 °F 68% 29.97 in 10.0 mi SSE 19.6 mph - N/A   Overcast
8:53 AM 37.9 °F 27.9 °F 28.9 °F 70% 29.99 in 10.0 mi SSE 19.6 mph 25.3 mph N/A   Overcast
9:53 AM 39.0 °F 29.0 °F 30.0 °F 70% 29.99 in 10.0 mi SSE 20.7 mph 28.8 mph N/A   Overcast
10:53 AM 39.0 °F 29.3 °F 30.9 °F 73% 29.99 in 10.0 mi SSE 19.6 mph 28.8 mph N/A   Overcast
11:53 AM 36.0 °F 26.0 °F 33.1 °F 89% 29.97 in 10.0 mi SSE 17.3 mph 25.3 mph 0.00 in   Overcast
12:53 PM 37.0 °F 26.7 °F 34.0 °F 89% 29.95 in 10.0 mi SSE 19.6 mph 27.6 mph N/A   Overcast
1:02 PM 37.9 °F 27.9 °F 34.0 °F 86% 29.93 in 10.0 mi SSE 19.6 mph 26.5 mph N/A   Overcast
1:53 PM 37.9 °F 28.2 °F 35.1 °F 89% 29.93 in 7.0 mi SSE 18.4 mph - N/A   Overcast
2:25 PM 37.9 °F 29.2 °F 35.1 °F 89% 29.91 in 6.0 mi SSE 15.0 mph - N/A   Overcast
2:53 PM 37.9 °F 30.0 °F 35.1 °F 89% 29.93 in 6.0 mi SSE 12.7 mph - N/A   Overcast
3:53 PM 37.0 °F 28.5 °F 35.1 °F 93% 29.94 in 5.0 mi SE 13.8 mph - N/A   Overcast
4:53 PM 37.0 °F 28.5 °F 35.1 °F 93% 29.95 in 4.0 mi SSE 13.8 mph - N/A   Overcast
5:53 PM 36.0 °F 27.5 °F 35.1 °F 97% 29.97 in 4.0 mi SSE 12.7 mph - N/A   Overcast
6:53 PM 36.0 °F 28.5 °F 35.1 °F 97% 29.98 in 3.0 mi SSE 10.4 mph - N/A   Overcast
7:11 PM 36.0 °F 28.0 °F 36.0 °F 100% 29.97 in 2.5 mi SE 11.5 mph - N/A   Overcast
7:53 PM 37.0 °F 29.3 °F 36.0 °F 96% 29.99 in 2.5 mi SE 11.5 mph - N/A   Overcast
8:23 PM 37.0 °F 29.3 °F 36.0 °F 96% 29.98 in 1.8 mi SSE 11.5 mph - N/A   Overcast
8:53 PM 37.0 °F 29.8 °F 37.0 °F 100% 30.01 in 1.8 mi SE 10.4 mph - N/A   Overcast
9:10 PM 37.0 °F 30.4 °F 37.0 °F 100% 29.99 in 2.0 mi SSE 9.2 mph - N/A   Overcast
9:53 PM 37.0 °F 29.8 °F 37.0 °F 100% 30.02 in 1.8 mi SE 10.4 mph - N/A   Overcast
10:07 PM 37.0 °F 29.8 °F 37.0 °F 100% 30.00 in 2.0 mi SSE 10.4 mph - N/A   Overcast
10:53 PM 37.0 °F 31.0 °F 37.0 °F 100% 30.03 in 2.5 mi SE 8.1 mph - N/A   Overcast
11:53 PM 37.0 °F 32.4 °F 37.0 °F 100% 30.05 in 3.0 mi SSE 5.8 mph - N/A   Overcast